Location: Chakepay
(13.3931°S, 72.1925°W)
Time: 15:57:32
(UTC+00:00)

Intercosmos 24 - Pass Details

Date: 15 November 2019
Orbit: 498 x 2379 km, 82.6° (Epoch: 13 December)

Event Time Altitude Azimuth Distance (km) Brightness Sun altitude
Rises 23:57:43 0° 353° (N) 3,484 7.7 -15.1°
Reaches altitude 10° 00:00:30 10° 352° (N) 2,309 6.8 -15.7°
Maximum altitude 00:05:22 74° 267° (W) 637 4.2 -16.8°
Drops below altitude 10° 00:09:07 10° 181° (S) 1,787 6.7 -17.6°
Sets 00:11:03 0° 179° (S) 2,624 7.6 -18.0°
